EZY787Q EGGW-EGPF

Flight info

Callsign EZY787Q
Flight time 0h 53m
Altitude 32000
Route OLNEY T420 TNT UN57 POL UN601 RIBEL DCT ASLIB
Aircraft A20N/M-SDE2E3FGHIJ1RWXYZ/LB1

Departure

Time 2026-04-28 07:43
Airport London Luton Airport (EGGW)

Arrival

Time 2026-04-28 08:37
Airport Glasgow Airport (EGPF)
Time Latitude Longitude Altitude Speed Heading
2026-04-28 07:09 51.88098 -0.37326 534 ft 0 kts 341°
2026-04-28 07:33 51.88089 -0.37321 533 ft 3 kts 341°
2026-04-28 07:33 51.88070 -0.37311 533 ft 3 kts 341°
2026-04-28 07:34 51.88052 -0.37301 533 ft 3 kts 347°
2026-04-28 07:34 51.88034 -0.37299 533 ft 3 kts 28°
2026-04-28 07:34 51.88021 -0.37319 533 ft 3 kts 70°
2026-04-28 07:34 51.88016 -0.37347 533 ft 2 kts 72°
2026-04-28 07:35 51.88015 -0.37349 533 ft 0 kts 72°
2026-04-28 07:37 51.88017 -0.37339 533 ft 3 kts 72°
2026-04-28 07:38 51.88028 -0.37287 533 ft 7 kts 72°
2026-04-28 07:38 51.88043 -0.37196 533 ft 10 kts 87°
2026-04-28 07:38 51.87997 -0.37117 533 ft 12 kts 156°
2026-04-28 07:38 51.87912 -0.37067 533 ft 14 kts 162°
2026-04-28 07:39 51.87826 -0.37021 533 ft 13 kts 162°
2026-04-28 07:39 51.87761 -0.36988 533 ft 2 kts 162°
2026-04-28 07:39 51.87734 -0.36973 533 ft 7 kts 162°
2026-04-28 07:39 51.87668 -0.36950 533 ft 12 kts 183°
2026-04-28 07:40 51.87616 -0.37058 534 ft 14 kts 252°
2026-04-28 07:40 51.87587 -0.37227 534 ft 17 kts 258°
2026-04-28 07:40 51.87581 -0.37390 535 ft 12 kts 257°
2026-04-28 07:40 51.87525 -0.37494 536 ft 13 kts 229°
2026-04-28 07:41 51.87485 -0.37646 536 ft 16 kts 253°
2026-04-28 07:41 51.87450 -0.37840 536 ft 18 kts 256°
2026-04-28 07:41 51.87429 -0.37962 536 ft 12 kts 248°
2026-04-28 07:41 51.87376 -0.38058 535 ft 5 kts 214°
2026-04-28 07:42 51.87357 -0.38074 534 ft 6 kts 206°
2026-04-28 07:42 51.87302 -0.38100 532 ft 8 kts 190°
2026-04-28 07:42 51.87265 -0.38041 533 ft 9 kts 85°
2026-04-28 07:42 51.87267 -0.38020 533 ft 0 kts 79°
2026-04-28 07:43 51.87348 -0.37558 536 ft 84 kts 74°
2026-04-28 07:43 51.87568 -0.36285 550 ft 147 kts 72°
2026-04-28 07:43 51.87833 -0.34772 1506 ft 134 kts 71°
2026-04-28 07:44 51.88103 -0.33279 2309 ft 146 kts 70°
2026-04-28 07:44 51.88405 -0.31624 3050 ft 160 kts 72°
2026-04-28 07:44 51.88730 -0.29803 3689 ft 180 kts 72°
2026-04-28 07:44 51.89105 -0.27747 4292 ft 201 kts 68°
2026-04-28 07:45 51.89913 -0.25770 4980 ft 218 kts 45°
2026-04-28 07:45 51.91217 -0.24469 5962 ft 227 kts 20°
2026-04-28 07:45 51.92827 -0.24353 6916 ft 242 kts 351°
2026-04-28 07:45 51.93877 -0.25066 7535 ft 252 kts 331°
2026-04-28 07:46 51.95101 -0.27190 8492 ft 267 kts 301°
2026-04-28 07:46 51.95599 -0.30134 9456 ft 278 kts 272°
2026-04-28 07:46 51.95232 -0.33194 10351 ft 285 kts 244°
2026-04-28 07:46 51.94257 -0.36012 11216 ft 288 kts 243°
2026-04-28 07:47 51.93704 -0.39188 11784 ft 302 kts 268°
2026-04-28 07:47 51.93983 -0.42645 12062 ft 321 kts 292°
2026-04-28 07:47 51.95137 -0.45836 12327 ft 337 kts 315°
2026-04-28 07:47 51.96891 -0.48424 12732 ft 350 kts 324°
2026-04-28 07:48 51.98803 -0.50916 13538 ft 354 kts 324°
2026-04-28 07:48 52.00690 -0.53552 14323 ft 360 kts 321°
2026-04-28 07:48 52.02528 -0.56354 15065 ft 365 kts 320°
2026-04-28 07:48 52.04341 -0.59278 15802 ft 369 kts 319°
2026-04-28 07:49 52.06148 -0.62279 16503 ft 373 kts 319°
2026-04-28 07:49 52.07948 -0.65299 17189 ft 378 kts 320°
2026-04-28 07:49 52.09792 -0.68402 17888 ft 382 kts 320°
2026-04-28 07:49 52.11666 -0.71522 18565 ft 385 kts 323°
2026-04-28 07:50 52.13729 -0.74293 19193 ft 381 kts 331°
2026-04-28 07:50 52.15942 -0.76557 19834 ft 380 kts 336°
2026-04-28 07:50 52.18230 -0.78801 20472 ft 383 kts 335°
2026-04-28 07:50 52.20521 -0.81067 21106 ft 386 kts 335°
2026-04-28 07:51 52.22835 -0.83363 21728 ft 389 kts 335°
2026-04-28 07:51 52.25134 -0.85645 22338 ft 392 kts 335°
2026-04-28 07:51 52.27476 -0.87972 22941 ft 395 kts 335°
2026-04-28 07:51 52.29841 -0.90323 23457 ft 400 kts 336°
2026-04-28 07:52 52.32231 -0.92699 24020 ft 403 kts 336°
2026-04-28 07:52 52.34633 -0.95093 24544 ft 405 kts 336°
2026-04-28 07:52 52.37054 -0.97509 25046 ft 407 kts 336°
2026-04-28 07:52 52.39454 -0.99908 25537 ft 409 kts 337°
2026-04-28 07:53 52.41889 -1.02350 26099 ft 409 kts 338°
2026-04-28 07:53 52.44328 -1.04791 26530 ft 412 kts 338°
2026-04-28 07:53 52.46790 -1.07256 26979 ft 414 kts 338°
2026-04-28 07:53 52.49237 -1.09711 27422 ft 417 kts 338°
2026-04-28 07:54 52.51719 -1.12205 27850 ft 419 kts 338°
2026-04-28 07:54 52.54219 -1.14726 28262 ft 421 kts 339°
2026-04-28 07:54 52.56702 -1.17230 28675 ft 423 kts 339°
2026-04-28 07:54 52.59232 -1.19783 29047 ft 425 kts 339°
2026-04-28 07:55 52.61736 -1.22311 29433 ft 427 kts 339°
2026-04-28 07:55 52.64286 -1.24889 29810 ft 430 kts 339°
2026-04-28 07:55 52.66844 -1.27480 30182 ft 432 kts 339°
2026-04-28 07:55 52.69414 -1.30086 30514 ft 434 kts 339°
2026-04-28 07:56 52.72001 -1.32715 30794 ft 437 kts 339°
2026-04-28 07:56 52.74563 -1.35321 31119 ft 439 kts 339°
2026-04-28 07:56 52.77176 -1.37986 31397 ft 441 kts 339°
2026-04-28 07:56 52.79786 -1.40654 31792 ft 441 kts 338°
2026-04-28 07:57 52.82403 -1.43331 32200 ft 441 kts 338°
2026-04-28 07:57 52.85019 -1.46008 32376 ft 440 kts 338°
2026-04-28 07:57 52.90186 -1.51312 32395 ft 438 kts 338°
2026-04-28 07:58 52.95345 -1.56625 32396 ft 434 kts 339°
2026-04-28 07:58 53.00491 -1.61929 32353 ft 435 kts 339°
2026-04-28 07:59 53.05660 -1.66960 32397 ft 426 kts 345°
2026-04-28 07:59 53.11117 -1.70514 32393 ft 418 kts 350°
2026-04-28 08:00 53.16547 -1.73893 32398 ft 419 kts 350°
2026-04-28 08:00 53.22021 -1.77305 32398 ft 418 kts 350°
2026-04-28 08:01 53.27472 -1.80705 32392 ft 418 kts 350°
2026-04-28 08:01 53.32902 -1.84097 32391 ft 417 kts 350°
2026-04-28 08:02 53.38349 -1.87508 32406 ft 418 kts 350°
2026-04-28 08:02 53.43816 -1.90941 32409 ft 419 kts 350°
2026-04-28 08:03 53.49265 -1.94375 32413 ft 420 kts 349°
2026-04-28 08:03 53.54749 -1.97840 32424 ft 420 kts 349°
2026-04-28 08:04 53.60194 -2.01291 32425 ft 420 kts 349°
2026-04-28 08:04 53.65656 -2.04763 32422 ft 420 kts 349°
2026-04-28 08:05 53.71117 -2.08243 32402 ft 420 kts 349°
2026-04-28 08:05 53.76578 -2.11757 32418 ft 420 kts 348°
2026-04-28 08:06 53.82013 -2.15480 32418 ft 421 kts 348°
2026-04-28 08:06 53.87437 -2.19218 32424 ft 421 kts 348°
2026-04-28 08:07 53.92838 -2.22925 32431 ft 421 kts 348°
2026-04-28 08:07 53.98286 -2.26665 32400 ft 421 kts 347°
2026-04-28 08:08 54.03641 -2.30842 32429 ft 430 kts 340°
2026-04-28 08:08 54.08848 -2.35737 32431 ft 429 kts 341°
2026-04-28 08:09 54.14090 -2.40636 32442 ft 430 kts 341°
2026-04-28 08:09 54.17321 -2.43664 32432 ft 433 kts 341°
2026-04-28 08:10 54.22566 -2.48612 32407 ft 429 kts 340°
2026-04-28 08:10 54.27814 -2.53570 32445 ft 430 kts 340°
2026-04-28 08:11 54.33021 -2.58504 32449 ft 430 kts 340°
2026-04-28 08:11 54.38261 -2.63487 32449 ft 430 kts 340°
2026-04-28 08:12 54.43498 -2.68479 32438 ft 429 kts 339°
2026-04-28 08:12 54.48690 -2.73442 32444 ft 429 kts 339°
2026-04-28 08:13 54.53916 -2.78453 32456 ft 430 kts 339°
2026-04-28 08:13 54.59162 -2.83499 32460 ft 431 kts 339°
2026-04-28 08:14 54.64366 -2.88521 32467 ft 431 kts 339°
2026-04-28 08:14 54.69575 -2.93567 31984 ft 426 kts 339°
2026-04-28 08:15 54.72159 -2.96072 31265 ft 426 kts 338°
2026-04-28 08:15 54.74753 -2.98584 30535 ft 426 kts 338°
2026-04-28 08:15 54.77329 -3.01089 29842 ft 422 kts 337°
2026-04-28 08:15 54.79873 -3.03570 29181 ft 417 kts 337°
2026-04-28 08:16 54.82363 -3.06002 28531 ft 414 kts 337°
2026-04-28 08:16 54.84862 -3.08445 27879 ft 410 kts 337°
2026-04-28 08:16 54.87339 -3.10870 27237 ft 407 kts 337°
2026-04-28 08:16 54.89795 -3.13279 26620 ft 403 kts 337°
2026-04-28 08:17 54.92232 -3.15671 26005 ft 400 kts 337°
2026-04-28 08:17 54.94658 -3.18056 25408 ft 397 kts 337°
2026-04-28 08:17 54.97058 -3.20418 24810 ft 394 kts 336°
2026-04-28 08:17 54.99413 -3.22738 24224 ft 392 kts 336°
2026-04-28 08:18 55.01784 -3.25078 23592 ft 389 kts 336°
2026-04-28 08:18 55.04134 -3.27402 22967 ft 385 kts 336°
2026-04-28 08:18 55.06460 -3.29704 22304 ft 382 kts 336°
2026-04-28 08:18 55.08741 -3.31964 21715 ft 379 kts 336°
2026-04-28 08:19 55.11030 -3.34236 21110 ft 376 kts 336°
2026-04-28 08:19 55.13298 -3.36467 20651 ft 371 kts 335°
2026-04-28 08:19 55.15318 -3.39341 20504 ft 384 kts 316°
2026-04-28 08:19 55.16852 -3.43283 20475 ft 394 kts 307°
2026-04-28 08:20 55.18237 -3.47375 20360 ft 391 kts 306°
2026-04-28 08:20 55.19622 -3.51480 19975 ft 389 kts 306°
2026-04-28 08:20 55.20996 -3.55550 19460 ft 387 kts 306°
2026-04-28 08:20 55.22348 -3.59551 18886 ft 385 kts 306°
2026-04-28 08:21 55.23714 -3.63583 18305 ft 382 kts 306°
2026-04-28 08:21 55.25070 -3.67574 17749 ft 378 kts 306°
2026-04-28 08:21 55.26414 -3.71521 17190 ft 374 kts 306°
2026-04-28 08:21 55.27737 -3.75394 16611 ft 372 kts 306°
2026-04-28 08:22 55.29073 -3.79277 15987 ft 371 kts 306°
2026-04-28 08:22 55.30413 -3.83152 15371 ft 370 kts 306°
2026-04-28 08:22 55.31752 -3.86997 14755 ft 369 kts 306°
2026-04-28 08:22 55.33100 -3.90844 14138 ft 368 kts 306°
2026-04-28 08:23 55.34448 -3.94666 13483 ft 367 kts 306°
2026-04-28 08:23 55.35780 -3.98414 12841 ft 365 kts 306°
2026-04-28 08:23 55.37132 -4.02193 12202 ft 364 kts 306°
2026-04-28 08:23 55.38487 -4.05953 11576 ft 363 kts 306°
2026-04-28 08:24 55.39845 -4.09694 10961 ft 361 kts 306°
2026-04-28 08:24 55.41186 -4.13361 10360 ft 357 kts 306°
2026-04-28 08:24 55.42522 -4.16997 9691 ft 347 kts 306°
2026-04-28 08:24 55.43821 -4.20522 9072 ft 337 kts 306°
2026-04-28 08:25 55.45076 -4.23925 8555 ft 326 kts 306°
2026-04-28 08:25 55.46279 -4.27187 8049 ft 315 kts 306°
2026-04-28 08:25 55.47463 -4.30383 7552 ft 306 kts 306°
2026-04-28 08:26 55.49740 -4.36513 6552 ft 291 kts 306°
2026-04-28 08:26 55.50832 -4.39477 6037 ft 285 kts 306°
2026-04-28 08:26 55.51895 -4.42391 5561 ft 278 kts 306°
2026-04-28 08:26 55.52907 -4.45183 5182 ft 269 kts 306°
2026-04-28 08:27 55.53906 -4.47918 4772 ft 260 kts 306°
2026-04-28 08:27 55.54878 -4.50559 4385 ft 253 kts 306°
2026-04-28 08:27 55.55827 -4.53131 4007 ft 247 kts 306°
2026-04-28 08:27 55.56761 -4.55644 3623 ft 242 kts 306°
2026-04-28 08:28 55.57671 -4.58103 3232 ft 234 kts 306°
2026-04-28 08:28 55.58517 -4.60403 2992 ft 209 kts 306°
2026-04-28 08:28 55.59252 -4.62419 2981 ft 196 kts 306°
2026-04-28 08:28 55.59987 -4.64437 2978 ft 192 kts 306°
2026-04-28 08:29 55.60711 -4.66433 2974 ft 193 kts 306°
2026-04-28 08:29 55.61439 -4.68427 2975 ft 192 kts 308°
2026-04-28 08:29 55.62455 -4.69839 2971 ft 185 kts 346°
2026-04-28 08:29 55.63687 -4.69879 2977 ft 180 kts 13°
2026-04-28 08:30 55.64913 -4.69519 2968 ft 177 kts 13°
2026-04-28 08:30 55.66132 -4.69169 2966 ft 177 kts 13°
2026-04-28 08:30 55.67355 -4.68829 2954 ft 175 kts 12°
2026-04-28 08:30 55.68512 -4.68517 2894 ft 158 kts 12°
2026-04-28 08:31 55.69573 -4.68240 2545 ft 154 kts 12°
2026-04-28 08:31 55.70281 -4.68050 2423 ft 156 kts 12°
2026-04-28 08:31 55.71364 -4.67764 2390 ft 158 kts 12°
2026-04-28 08:31 55.72452 -4.67475 2384 ft 158 kts 12°
2026-04-28 08:32 55.73544 -4.67181 2384 ft 158 kts 12°
2026-04-28 08:32 55.74583 -4.66650 2380 ft 155 kts 33°
2026-04-28 08:32 55.75350 -4.65378 2384 ft 153 kts 49°
2026-04-28 08:32 55.76077 -4.64004 2384 ft 152 kts 48°
2026-04-28 08:33 55.76818 -4.62640 2381 ft 154 kts 47°
2026-04-28 08:33 55.77558 -4.61272 2395 ft 153 kts 48°
2026-04-28 08:33 55.78297 -4.59896 2364 ft 154 kts 47°
2026-04-28 08:33 55.79037 -4.58522 2188 ft 152 kts 48°
2026-04-28 08:34 55.79768 -4.57161 1979 ft 155 kts 48°
2026-04-28 08:34 55.80495 -4.55810 1766 ft 143 kts 48°
2026-04-28 08:34 55.81149 -4.54594 1573 ft 129 kts 48°
2026-04-28 08:34 55.81756 -4.53460 1409 ft 128 kts 48°
2026-04-28 08:35 55.82371 -4.52315 1218 ft 127 kts 47°
2026-04-28 08:35 55.82976 -4.51189 1034 ft 123 kts 48°
2026-04-28 08:35 55.83582 -4.50116 848 ft 123 kts 46°
2026-04-28 08:35 55.84165 -4.49032 673 ft 121 kts 50°
2026-04-28 08:36 55.84738 -4.47921 527 ft 121 kts 50°
2026-04-28 08:36 55.85330 -4.46810 404 ft 126 kts 48°
2026-04-28 08:36 55.85933 -4.45703 199 ft 121 kts 49°
2026-04-28 08:36 55.86489 -4.44638 48 ft 111 kts 49°
2026-04-28 08:37 55.86902 -4.43855 31 ft 44 kts 47°
2026-04-28 08:37 55.87086 -4.43525 33 ft 36 kts 46°
2026-04-28 08:37 55.87246 -4.43227 28 ft 28 kts 45°
2026-04-28 08:37 55.87384 -4.42974 27 ft 29 kts 46°
2026-04-28 08:38 55.87494 -4.42765 30 ft 23 kts 47°
2026-04-28 08:38 55.87604 -4.42561 31 ft 24 kts 47°
2026-04-28 08:38 55.87681 -4.42416 29 ft 14 kts 47°
2026-04-28 08:38 55.87738 -4.42301 29 ft 13 kts 64°
2026-04-28 08:39 55.87696 -4.42162 24 ft 16 kts 160°
2026-04-28 08:39 55.87604 -4.42193 27 ft 0 kts 213°
2026-04-28 08:41 55.87585 -4.42218 27 ft 7 kts 218°
2026-04-28 08:42 55.87539 -4.42296 30 ft 10 kts 225°
2026-04-28 08:42 55.87498 -4.42373 28 ft 7 kts 228°
2026-04-28 08:42 55.87474 -4.42424 29 ft 5 kts 230°
2026-04-28 08:42 55.87441 -4.42494 28 ft 10 kts 227°
2026-04-28 08:43 55.87377 -4.42591 27 ft 13 kts 211°
2026-04-28 08:43 55.87298 -4.42647 28 ft 12 kts 198°
2026-04-28 08:43 55.87222 -4.42695 27 ft 12 kts 201°
2026-04-28 08:43 55.87152 -4.42745 27 ft 10 kts 202°
2026-04-28 08:44 55.87093 -4.42786 28 ft 8 kts 200°
2026-04-28 08:44 55.87045 -4.42816 28 ft 7 kts 199°
2026-04-28 08:44 55.87004 -4.42843 29 ft 6 kts 202°
2026-04-28 08:44 55.86963 -4.42877 30 ft 6 kts 206°
2026-04-28 08:45 55.86919 -4.42917 31 ft 8 kts 208°
2026-04-28 08:45 55.86865 -4.42986 32 ft 12 kts 232°
2026-04-28 08:45 55.86826 -4.43147 31 ft 15 kts 253°
2026-04-28 08:45 55.86800 -4.43312 31 ft 11 kts 255°
2026-04-28 08:46 55.86778 -4.43448 29 ft 12 kts 253°
2026-04-28 08:46 55.86752 -4.43574 29 ft 10 kts 233°
2026-04-28 08:46 55.86699 -4.43594 29 ft 8 kts 173°
2026-04-28 08:46 55.86647 -4.43576 28 ft 6 kts 165°
2026-04-28 08:47 55.86627 -4.43566 28 ft 5 kts 164°
2026-04-28 08:47 55.86608 -4.43550 29 ft 1 kts 139°
2026-04-28 08:47 55.86604 -4.43525 29 ft 3 kts 97°
2026-04-28 08:47 55.86608 -4.43485 29 ft 2 kts 78°
2026-04-28 08:48 55.86610 -4.43467 30 ft 2 kts 76°
2026-04-28 08:48 55.86612 -4.43454 30 ft 0 kts 74°
2026-04-28 08:48 55.86614 -4.43440 30 ft 0 kts 74°
2026-04-28 08:48 55.86615 -4.43437 30 ft 0 kts 73°
2026-04-28 08:49 55.86615 -4.43434 30 ft 0 kts 73°